Lid_Strength_Index
13 12 12 13 12 13 14 13 16 14 14 11 10 9 8 9 9 9 8 8 8 8 8 7 7 7 6 6 6 6 6 6 7 7 7 7 7 7 6 5 4 3 3 3
15 12 12 13 12 12 12 12 12 12 13 9 9 10 9 9 8 8 8 7 7 7 7 7 7 7 6 6 6 6 6 6 6 6 6 7 6 5 5 5 5 5 4 3
17 13 13 16 13 12 12 11 12 14 12 10 10 9 10 10 9 8 8 8 7 7 7 7 7 7 7 7 7 7 7 7 7 7 7 6 5 5 6 6 6 6 7 7
17 16 20 14 10 9 11 11 10 10 10 8 9 9 9 9 9 9 8 7 8 8 8 8 8 7 8 8 8 8 8 9 8 7 7 7 7 7 6 7 8 8 7 7
17 17 15 12 11 12 13 13 10 11 10 9 8 8 9 7 7 8 8 8 8 8 8 8 8 8 9 9 9 9 10 9 8 8 8 8 9 10 10 9 9 8 7 6
15 19 20 13 10 8 9 16 9 9 9 9 9 12 11 6 6 7 7 8 8 9 8 9 9 9 10 10 10 10 9 9 9 9 10 11 11 11 10 10 9 7 6 6
16 17 15 10 8 7 16 14 9 8 8 9 10 9 8 8 8 8 8 8 9 9 10 10 10 10 11 11 10 10 10 10 10 11 12 11 11 11 11 10 9 8 8 7
15 17 18 8 9 13 10 9 8 8 8 8 9 9 9 8 8 8 9 9 9 10 10 10 10 11 11 11 11 11 10 11 12 12 12 12 12 12 11 9 9 9 9 9
14 14 10 8 8 7 8 8 7 8 7 8 9 9 9 9 9 9 10 10 10 11 11 10 10 11 12 12 11 12 13 13 13 12 12 12 11 10 10 9 9 9 8 7
12 10 9 8 7 7 6 6 6 6 7 7 9 9 9 9 10 10 10 11 11 11 11 12 12 12 12 13 13 14 14 14 14 13 12 11 10 10 10 10 9 9 9 7
11 10 8 7 7 6 5 6 6 6 7 8 8 9 10 11 11 11 11 10 11 12 14 14 13 14 14 14 14 15 15 14 14 12 11 10 10 10 9 9 8 9 8 7
14 10 9 8 6 6 7 7 8 8 8 8 9 10 11 12 11 11 12 12 14 15 15 15 15 15 15 15 14 15 15 14 12 11 11 10 10 10 10 10 9 10 10 8
9 7 7 7 6 6 8 8 8 8 9 10 11 11 12 12 12 12 14 15 16 16 16 16 16 16 15 15 14 13 14 13 12 12 11 11 11 11 12 9 9 10 10 8
8 8 8 8 9 8 8 8 8 9 10 11 11 11 12 13 13 15 15 16 16 16 17 17 16 16 15 15 15 15 14 12 12 12 12 11 12 11 11 11 10 10 10 8
7 6 7 8 8 8 8 9 10 10 10 10 11 12 13 15 16 16 16 16 17 17 17 17 17 17 16 16 16 14 13 12 11 11 11 11 11 11 11 11 10 9 8 9
6 7 9 9 8 9 9 9 10 11 11 12 13 14 15 15 16 17 17 17 18 19 18 17 17 17 16 16 15 14 14 11 11 11 11 11 11 11 11 11 10 10 8 8
7 9 8 9 9 9 10 10 10 11 12 13 14 15 16 17 18 18 18 18 18 18 17 17 18 17 16 15 14 14 12 11 11 9 9 11 11 11 11 10 10 9 7 8
7 8 9 9 9 9 10 9 10 11 13 14 15 16 17 19 19 19 18 18 18 18 17 18 17 16 16 15 14 14 11 9 8 10 10 11 11 11 11 10 10 9 9 9
7 8 8 8 9 9 10 11 12 13 14 15 16 18 18 18 18 19 19 19 19 19 19 17 16 17 16 15 15 13 12 10 8 9 10 11 11 11 11 11 9 9 9 8
8 8 8 9 9 10 11 12 13 14 14 15 17 18 19 19 19 19 19 20 18 18 17 17 17 17 17 16 15 14 14 12 10 11 10 10 10 11 11 11 9 9 8 8
10 10 11 11 12 12 12 12 14 15 15 16 18 19 19 19 19 19 20 20 18 17 17 17 17 18 17 17 16 16 15 14 12 13 12 11 9 10 10 10 9 9 8 8
10 10 11 11 13 13 13 13 14 15 16 17 18 18 19 20 20 20 18 19 18 18 17 17 17 17 17 17 17 17 16 15 13 14 14 13 12 11 9 9 10 9 7 7
9 9 10 11 13 14 13 13 14 15 16 17 18 18 19 19 19 20 20 18 18 18 18 18 18 17 18 18 17 18 18 16 15 15 14 14 14 13 13 12 10 8 7 8
9 9 10 11 12 14 15 14 13 15 15 16 17 17 18 19 19 18 18 18 18 18 18 17 18 18 17 18 18 19 18 17 16 15 15 14 14 14 13 13 13 11 10 9
9 9 9 10 12 14 14 14 14 14 15 16 17 17 17 17 18 18 18 18 18 18 18 17 18 18 18 17 18 19 19 18 17 17 16 16 15 15 14 13 13 13 12 12
10 11 11 10 11 12 13 14 15 15 16 16 17 17 17 17 18 18 18 18 18 18 19 18 18 18 18 18 18 18 19 19 19 19 18 18 17 16 15 14 14 13 13 13
10 10 11 11 11 11 12 13 14 15 15 16 17 17 17 17 18 18 18 19 19 19 19 18 18 18 18 18 18 18 18 19 19 19 19 19 18 18 17 17 16 14 13 13